| time (UTC) | temp F | wind direction | speed MPH | gust MPH | rain 1hr in | rain 24hr in | rain mn in | humidity % | barometer mb |
| 20260508203606 | 68 | 226 | 3.0 | 10.0 | 0.00 | 0.00 | 0.00 | 30 | 1012.7 |
| 20260508203106 | 68 | 238 | 2.0 | 4.0 | 0.00 | 0.00 | 0.00 | 32 | 1012.6 |
| 20260508202606 | 68 | 205 | 3.0 | 5.0 | 0.00 | 0.00 | 0.00 | 31 | 1012.7 |
| 20260508202106 | 68 | 221 | 3.0 | 6.0 | 0.00 | 0.00 | 0.00 | 31 | 1012.9 |
| 20260508201606 | 67 | 218 | 2.0 | 6.0 | 0.00 | 0.00 | 0.00 | 31 | 1012.9 |
| 20260508201106 | 67 | 205 | 2.0 | 5.0 | 0.00 | 0.00 | 0.00 | 31 | 1012.8 |
| 20260508200606 | 68 | 200 | 3.0 | 6.0 | 0.00 | 0.00 | 0.00 | 32 | 1013.0 |
| 20260508200106 | 68 | 238 | 2.0 | 5.0 | 0.00 | 0.00 | 0.00 | 32 | 1013.1 |
| 20260508195646 | 68 | 188 | 2.0 | 4.0 | 0.00 | 0.00 | 0.00 | 32 | 1013.0 |
| 20260508195106 | 67 | 145 | 4.0 | 8.0 | 0.00 | 0.00 | 0.00 | 30 | 1013.1 |
| 20260508194606 | 67 | 198 | 3.0 | 5.0 | 0.00 | 0.00 | 0.00 | 33 | 1013.2 |
| 20260508194106 | 67 | 208 | 3.0 | 7.0 | 0.00 | 0.00 | 0.00 | 33 | 1013.2 |
| 20260508193626 | 68 | 226 | 2.0 | 4.0 | 0.00 | 0.00 | 0.00 | 33 | 1013.3 |
| 20260508193126 | 67 | 187 | 1.0 | 6.0 | 0.00 | 0.00 | 0.00 | 32 | 1013.2 |
| 20260508192606 | 67 | 212 | 2.0 | 7.0 | 0.00 | 0.00 | 0.00 | 33 | 1013.4 |
| 20260508192106 | 67 | 213 | 3.0 | 7.0 | 0.00 | 0.00 | 0.00 | 32 | 1013.4 |
| 20260508191606 | 67 | 248 | 3.0 | 8.0 | 0.00 | 0.00 | 0.00 | 34 | 1013.6 |
| 20260508191106 | 67 | 245 | 2.0 | 6.0 | 0.00 | 0.00 | 0.00 | 34 | 1013.6 |
| 20260508190606 | 67 | 215 | 1.0 | 5.0 | 0.00 | 0.00 | 0.00 | 33 | 1013.8 |
| 20260508190126 | 66 | 183 | 2.0 | 5.0 | 0.00 | 0.00 | 0.00 | 33 | 1013.9 |
| 20260508185606 | 66 | 180 | 3.0 | 7.0 | 0.00 | 0.00 | 0.00 | 34 | 1014.0 |
| 20260508185126 | 66 | 216 | 2.0 | 5.0 | 0.00 | 0.00 | 0.00 | 34 | 1014.0 |
| 20260508184606 | 66 | 171 | 3.0 | 7.0 | 0.00 | 0.00 | 0.00 | 34 | 1014.1 |
| 20260508184126 | 66 | 139 | 2.0 | 6.0 | 0.00 | 0.00 | 0.00 | 34 | 1014.3 |
| 20260508183606 | 66 | 142 | 1.0 | 5.0 | 0.00 | 0.00 | 0.00 | 34 | 1014.3 |
| 20260508183106 | 65 | 162 | 2.0 | 5.0 | 0.00 | 0.00 | 0.00 | 34 | 1014.4 |
| 20260508182626 | 65 | 140 | 3.0 | 5.0 | 0.00 | 0.00 | 0.00 | 33 | 1014.6 |
| 20260508182106 | 66 | 130 | 2.0 | 5.0 | 0.00 | 0.00 | 0.00 | 34 | 1014.8 |
| 20260508181626 | 66 | 160 | 1.0 | 3.0 | 0.00 | 0.00 | 0.00 | 37 | 1014.9 |
| 20260508181106 | 65 | 208 | 1.0 | 4.0 | 0.00 | 0.00 | 0.00 | 35 | 1014.9 |
| 20260508180606 | 65 | 184 | 3.0 | 6.0 | 0.00 | 0.00 | 0.00 | 33 | 1015.0 |
| 20260508180106 | 65 | 224 | 2.0 | 5.0 | 0.00 | 0.00 | 0.00 | 37 | 1015.0 |
| 20260508175606 | 64 | 216 | 3.0 | 5.0 | 0.00 | 0.00 | 0.00 | 36 | 1015.2 |
| 20260508175106 | 65 | 199 | 2.0 | 7.0 | 0.00 | 0.00 | 0.00 | 37 | 1015.4 |
| 20260508174606 | 65 | 210 | 2.0 | 4.0 | 0.00 | 0.00 | 0.00 | 38 | 1015.4 |
| 20260508174106 | 64 | 232 | 3.0 | 5.0 | 0.00 | 0.00 | 0.00 | 38 | 1015.6 |
| 20260508173606 | 64 | 228 | 3.0 | 6.0 | 0.00 | 0.00 | 0.00 | 38 | 1015.7 |
| 20260508173106 | 64 | 231 | 3.0 | 6.0 | 0.00 | 0.00 | 0.00 | 36 | 1015.7 |
| 20260508172606 | 64 | 173 | 2.0 | 4.0 | 0.00 | 0.00 | 0.00 | 38 | 1015.9 |
| 20260508172106 | 64 | 234 | 1.0 | 4.0 | 0.00 | 0.00 | 0.00 | 38 | 1016.0 |
| 20260508171626 | 63 | 223 | 2.0 | 6.0 | 0.00 | 0.00 | 0.00 | 39 | 1016.2 |
| 20260508171106 | 64 | 230 | 3.0 | 7.0 | 0.00 | 0.00 | 0.00 | 39 | 1016.1 |
| 20260508170606 | 63 | 179 | 2.0 | 3.0 | 0.00 | 0.00 | 0.00 | 39 | 1016.2 |
| 20260508170106 | 63 | 188 | 1.0 | 4.0 | 0.00 | 0.00 | 0.00 | 41 | 1016.3 |
| 20260508165607 | 63 | 242 | 1.0 | 4.0 | 0.00 | 0.00 | 0.00 | 42 | 1016.3 |
| 20260508165126 | 63 | 129 | 2.0 | 4.0 | 0.00 | 0.00 | 0.00 | 42 | 1016.5 |
| 20260508164606 | 62 | 162 | 1.0 | 4.0 | 0.00 | 0.00 | 0.00 | 44 | 1016.6 |
| 20260508164106 | 62 | 215 | 3.0 | 5.0 | 0.00 | 0.00 | 0.00 | 42 | 1016.6 |
| 20260508163606 | 62 | 162 | 2.0 | 4.0 | 0.00 | 0.00 | 0.00 | 43 | 1016.8 |
| 20260508163106 | 62 | 204 | 3.0 | 5.0 | 0.00 | 0.00 | 0.00 | 42 | 1016.9 |
| 20260508162606 | 62 | 174 | 2.0 | 4.0 | 0.00 | 0.00 | 0.00 | 43 | 1016.8 |
| 20260508162146 | 61 | 178 | 3.0 | 5.0 | 0.00 | 0.00 | 0.00 | 42 | 1017.0 |
| 20260508161626 | 62 | 165 | 2.0 | 4.0 | 0.00 | 0.00 | 0.00 | 44 | 1017.1 |
| 20260508161106 | 61 | 204 | 2.0 | 5.0 | 0.00 | 0.00 | 0.00 | 45 | 1017.0 |
| 20260508160606 | 61 | 193 | 3.0 | 5.0 | 0.00 | 0.00 | 0.00 | 45 | 1017.1 |
| 20260508160126 | 61 | 198 | 2.0 | 5.0 | 0.00 | 0.00 | 0.00 | 44 | 1017.1 |
| 20260508155606 | 61 | 189 | 2.0 | 4.0 | 0.00 | 0.00 | 0.00 | 44 | 1017.2 |
| 20260508155106 | 60 | 235 | 4.0 | 6.0 | 0.00 | 0.00 | 0.00 | 43 | 1017.3 |
| 20260508154606 | 61 | 229 | 3.0 | 6.0 | 0.00 | 0.00 | 0.00 | 45 | 1017.4 |
| 20260508154106 | 60 | 223 | 2.0 | 5.0 | 0.00 | 0.00 | 0.00 | 46 | 1017.4 |
| 20260508153606 | 59 | 202 | 2.0 | 5.0 | 0.00 | 0.00 | 0.00 | 44 | 1017.4 |
| 20260508153126 | 59 | 222 | 4.0 | 6.0 | 0.00 | 0.00 | 0.00 | 45 | 1017.6 |
| 20260508152606 | 59 | 231 | 3.0 | 6.0 | 0.00 | 0.00 | 0.00 | 46 | 1017.6 |
| 20260508152106 | 59 | 215 | 2.0 | 6.0 | 0.00 | 0.00 | 0.00 | 46 | 1017.7 |
| 20260508151606 | 59 | 229 | 2.0 | 6.0 | 0.00 | 0.00 | 0.00 | 47 | 1017.6 |
| 20260508151106 | 59 | 236 | 2.0 | 5.0 | 0.00 | 0.00 | 0.00 | 47 | 1017.7 |
| 20260508150606 | 58 | 176 | 2.0 | 6.0 | 0.00 | 0.00 | 0.00 | 44 | 1017.7 |
| 20260508150106 | 59 | 224 | 3.0 | 5.0 | 0.00 | 0.00 | 0.00 | 45 | 1017.8 |
| 20260508145606 | 58 | 227 | 2.0 | 5.0 | 0.00 | 0.00 | 0.00 | 45 | 1017.7 |
| 20260508145146 | 58 | 213 | 3.0 | 5.0 | 0.00 | 0.00 | 0.00 | 43 | 1017.7 |
| 20260508144606 | 58 | 232 | 3.0 | 6.0 | 0.00 | 0.00 | 0.00 | 43 | 1017.7 |
| 20260508144106 | 57 | 207 | 2.0 | 5.0 | 0.00 | 0.00 | 0.00 | 43 | 1017.8 |
| 20260508143606 | 57 | 218 | 3.0 | 6.0 | 0.00 | 0.00 | 0.00 | 46 | 1017.7 |
| 20260508143106 | 57 | 202 | 1.0 | 4.0 | 0.00 | 0.00 | 0.00 | 49 | 1017.8 |
| 20260508142626 | 57 | 217 | 2.0 | 4.0 | 0.00 | 0.00 | 0.00 | 50 | 1017.7 |
| 20260508142106 | 56 | 215 | 2.0 | 4.0 | 0.00 | 0.00 | 0.00 | 52 | 1017.8 |
| 20260508141606 | 56 | 193 | 2.0 | 3.0 | 0.00 | 0.00 | 0.00 | 54 | 1017.8 |
| 20260508141106 | 56 | 142 | 2.0 | 3.0 | 0.00 | 0.00 | 0.00 | 57 | 1017.8 |
| 20260508140606 | 55 | 183 | 1.0 | 3.0 | 0.00 | 0.00 | 0.00 | 58 | 1017.7 |
| 20260508140106 | 55 | 235 | 3.0 | 5.0 | 0.00 | 0.00 | 0.00 | 56 | 1017.7 |
| 20260508135606 | 55 | 213 | 2.0 | 4.0 | 0.00 | 0.00 | 0.00 | 57 | 1017.7 |
| 20260508135106 | 55 | 244 | 2.0 | 4.0 | 0.00 | 0.00 | 0.00 | 58 | 1017.6 |
| 20260508134626 | 54 | 216 | 1.0 | 4.0 | 0.00 | 0.00 | 0.00 | 61 | 1017.7 |
| 20260508134106 | 53 | 212 | 2.0 | 3.0 | 0.00 | 0.00 | 0.00 | 62 | 1017.6 |
| 20260508133606 | 53 | 244 | 1.0 | 5.0 | 0.00 | 0.00 | 0.00 | 63 | 1017.7 |
| 20260508133106 | 52 | 260 | 2.0 | 4.0 | 0.00 | 0.00 | 0.00 | 64 | 1017.7 |
| 20260508132606 | 51 | 254 | 2.0 | 5.0 | 0.00 | 0.00 | 0.00 | 65 | 1017.6 |
| 20260508132106 | 51 | 228 | 2.0 | 4.0 | 0.00 | 0.00 | 0.00 | 69 | 1017.6 |
| 20260508131606 | 50 | 193 | 2.0 | 3.0 | 0.00 | 0.00 | 0.00 | 68 | 1017.6 |
| 20260508131106 | 50 | 228 | 2.0 | 3.0 | 0.00 | 0.00 | 0.00 | 71 | 1017.6 |
| 20260508130606 | 49 | 208 | 2.0 | 4.0 | 0.00 | 0.00 | 0.00 | 71 | 1017.6 |
| 20260508130107 | 49 | 209 | 1.0 | 4.0 | 0.00 | 0.00 | 0.00 | 72 | 1017.6 |
| 20260508125627 | 48 | 210 | 0.0 | 3.0 | 0.00 | 0.00 | 0.00 | 73 | 1017.5 |
| 20260508125107 | 47 | 0.0 | 1.0 | 0.00 | 0.00 | 0.00 | 76 | 1017.3 | |
| 20260508124607 | 47 | 0.0 | 2.0 | 0.00 | 0.00 | 0.00 | 74 | 1017.4 | |
| 20260508124107 | 46 | 305 | 0.0 | 2.0 | 0.00 | 0.00 | 0.00 | 76 | 1017.4 |
| 20260508123607 | 46 | 300 | 1.0 | 2.0 | 0.00 | 0.00 | 0.00 | 79 | 1017.5 |
| 20260508123107 | 45 | 327 | 2.0 | 3.0 | 0.00 | 0.00 | 0.00 | 80 | 1017.4 |
| 20260508122607 | 45 | 304 | 2.0 | 3.0 | 0.00 | 0.00 | 0.00 | 80 | 1017.3 |
| 20260508122107 | 44 | 182 | 0.0 | 2.0 | 0.00 | 0.00 | 0.00 | 79 | 1017.3 |
| 20260508121607 | 43 | 130 | 0.0 | 2.0 | 0.00 | 0.00 | 0.00 | 81 | 1017.3 |
| 20260508121107 | 43 | 0.0 | 2.0 | 0.00 | 0.00 | 0.00 | 84 | 1017.3 | |
| 20260508120607 | 42 | 205 | 1.0 | 3.0 | 0.00 | 0.00 | 0.00 | 87 | 1017.3 |
| 20260508120106 | 41 | 192 | 1.0 | 3.0 | 0.00 | 0.00 | 0.00 | 90 | 1017.2 |
| 20260508115606 | 40 | 172 | 1.0 | 3.0 | 0.00 | 0.00 | 0.00 | 93 | 1017.2 |
| 20260508115107 | 39 | 0.0 | 2.0 | 0.00 | 0.00 | 0.00 | 95 | 1017.2 | |
| 20260508114607 | 39 | 0.0 | 2.0 | 0.00 | 0.00 | 0.00 | 95 | 1017.2 | |
| 20260508114106 | 39 | 124 | 0.0 | 1.0 | 0.00 | 0.00 | 0.00 | 95 | 1017.1 |
| 20260508113607 | 38 | 0.0 | 1.0 | 0.00 | 0.00 | 0.00 | 95 | 1016.9 | |
| 20260508113147 | 38 | 195 | 0.0 | 1.0 | 0.00 | 0.00 | 0.00 | 95 | 1016.9 |
| 20260508112606 | 37 | 48 | 0.0 | 2.0 | 0.00 | 0.00 | 0.00 | 95 | 1016.8 |
| 20260508112127 | 37 | 95 | 1.0 | 2.0 | 0.00 | 0.00 | 0.00 | 95 | 1016.8 |
| 20260508111607 | 37 | 123 | 1.0 | 3.0 | 0.00 | 0.00 | 0.00 | 95 | 1016.8 |
| 20260508111107 | 37 | 153 | 2.0 | 3.0 | 0.00 | 0.00 | 0.00 | 95 | 1016.8 |
| 20260508110647 | 37 | 156 | 1.0 | 3.0 | 0.00 | 0.00 | 0.00 | 95 | 1016.7 |
| 20260508110107 | 36 | 97 | 1.0 | 2.0 | 0.00 | 0.00 | 0.00 | 95 | 1016.6 |
| 20260508105606 | 36 | 140 | 1.0 | 2.0 | 0.00 | 0.00 | 0.00 | 95 | 1016.6 |
| 20260508105107 | 36 | 0.0 | 2.0 | 0.00 | 0.00 | 0.00 | 95 | 1016.6 | |
| 20260508104607 | 36 | 120 | 0.0 | 2.0 | 0.00 | 0.00 | 0.00 | 95 | 1016.6 |
| 20260508104107 | 36 | 17 | 1.0 | 3.0 | 0.00 | 0.00 | 0.00 | 95 | 1016.6 |
| 20260508103607 | 36 | 110 | 1.0 | 3.0 | 0.00 | 0.00 | 0.00 | 95 | 1016.5 |
| 20260508103126 | 36 | 0.0 | 3.0 | 0.00 | 0.00 | 0.00 | 95 | 1016.6 | |
| 20260508102607 | 36 | 79 | 1.0 | 2.0 | 0.00 | 0.00 | 0.00 | 95 | 1016.6 |
| 20260508101607 | 36 | 93 | 1.0 | 2.0 | 0.00 | 0.00 | 0.00 | 95 | 1016.5 |
| 20260508101106 | 36 | 103 | 1.0 | 3.0 | 0.00 | 0.00 | 0.00 | 95 | 1016.5 |
| 20260508100606 | 36 | 158 | 1.0 | 3.0 | 0.00 | 0.00 | 0.00 | 95 | 1016.5 |
| 20260508100106 | 36 | 139 | 1.0 | 2.0 | 0.00 | 0.00 | 0.00 | 95 | 1016.6 |
| 20260508095606 | 36 | 147 | 0.0 | 2.0 | 0.00 | 0.00 | 0.00 | 95 | 1016.5 |
| 20260508095106 | 36 | 358 | 1.0 | 3.0 | 0.00 | 0.00 | 0.00 | 95 | 1016.5 |
| 20260508094626 | 36 | 99 | 1.0 | 3.0 | 0.00 | 0.00 | 0.00 | 95 | 1016.6 |
| 20260508094106 | 36 | 165 | 1.0 | 3.0 | 0.00 | 0.00 | 0.00 | 95 | 1016.7 |
| 20260508093626 | 37 | 95 | 1.0 | 3.0 | 0.00 | 0.00 | 0.00 | 95 | 1016.6 |
| 20260508093126 | 37 | 322 | 1.0 | 3.0 | 0.00 | 0.00 | 0.00 | 95 | 1016.6 |
| 20260508092606 | 37 | 350 | 1.0 | 3.0 | 0.00 | 0.00 | 0.00 | 95 | 1016.6 |
| 20260508092106 | 37 | 318 | 1.0 | 2.0 | 0.00 | 0.00 | 0.00 | 95 | 1016.7 |
| 20260508091606 | 38 | 107 | 1.0 | 2.0 | 0.00 | 0.00 | 0.00 | 95 | 1016.6 |
| 20260508091106 | 37 | 73 | 0.0 | 2.0 | 0.00 | 0.00 | 0.00 | 95 | 1016.6 |
| 20260508090606 | 37 | 0.0 | 1.0 | 0.00 | 0.00 | 0.00 | 95 | 1016.6 | |
| 20260508090127 | 37 | 0.0 | 1.0 | 0.00 | 0.00 | 0.00 | 95 | 1016.7 | |
| 20260508085606 | 37 | 0.0 | 1.0 | 0.00 | 0.00 | 0.00 | 95 | 1016.7 | |
| 20260508085106 | 37 | 140 | 0.0 | 1.0 | 0.00 | 0.00 | 0.00 | 95 | 1016.7 |
| 20260508084606 | 37 | 0.0 | 0.0 | 0.00 | 0.00 | 0.00 | 95 | 1016.6 | |
| 20260508084126 | 37 | 0.0 | 0.0 | 0.00 | 0.00 | 0.00 | 95 | 1016.7 | |
| 20260508083606 | 37 | 0.0 | 0.0 | 0.00 | 0.00 | 0.00 | 95 | 1016.7 | |
| 20260508083107 | 37 | 0.0 | 0.0 | 0.00 | 0.00 | 0.00 | 95 | 1016.7 | |
| 20260508082606 | 37 | 0.0 | 0.0 | 0.00 | 0.00 | 0.00 | 95 | 1016.6 | |
| 20260508082106 | 37 | 0.0 | 0.0 | 0.00 | 0.00 | 0.00 | 95 | 1016.7 | |
| 20260508081606 | 36 | 0.0 | 0.0 | 0.00 | 0.00 | 0.00 | 95 | 1016.7 | |
| 20260508081126 | 36 | 0.0 | 0.0 | 0.00 | 0.00 | 0.00 | 95 | 1016.6 | |
| 20260508080626 | 36 | 0.0 | 0.0 | 0.00 | 0.00 | 0.00 | 95 | 1016.6 | |
| 20260508080127 | 37 | 0.0 | 0.0 | 0.00 | 0.00 | 0.00 | 95 | 1016.7 | |
| 20260508075627 | 36 | 0.0 | 0.0 | 0.00 | 0.00 | 0.00 | 95 | 1016.6 | |
| 20260508075107 | 36 | 0.0 | 0.0 | 0.00 | 0.00 | 0.00 | 95 | 1016.7 | |
| 20260508074607 | 37 | 0.0 | 0.0 | 0.00 | 0.00 | 0.00 | 95 | 1016.7 | |
| 20260508074107 | 37 | 0.0 | 1.0 | 0.00 | 0.00 | 0.00 | 95 | 1016.6 | |
| 20260508073627 | 37 | 0.0 | 1.0 | 0.00 | 0.00 | 0.00 | 95 | 1016.6 | |
| 20260508073107 | 38 | 0.0 | 1.0 | 0.00 | 0.00 | 0.00 | 95 | 1016.5 | |
| 20260508072627 | 39 | 0.0 | 1.0 | 0.00 | 0.00 | 0.00 | 95 | 1016.5 | |
| 20260508072107 | 38 | 0.0 | 0.0 | 0.00 | 0.00 | 0.00 | 95 | 1016.5 | |
| 20260508071627 | 38 | 0.0 | 0.0 | 0.00 | 0.00 | 0.00 | 95 | 1016.6 | |
| 20260508071107 | 38 | 0.0 | 0.0 | 0.00 | 0.00 | 0.00 | 95 | 1016.6 | |
| 20260508070607 | 38 | 0.0 | 0.0 | 0.00 | 0.00 | 0.00 | 95 | 1016.4 | |
| 20260508070107 | 38 | 0.0 | 0.0 | 0.00 | 0.00 | 0.00 | 95 | 1016.5 | |
| 20260508065627 | 38 | 0.0 | 0.0 | 0.00 | 0.00 | 0.00 | 95 | 1016.5 | |
| 20260508065107 | 38 | 0.0 | 0.0 | 0.00 | 0.00 | 0.00 | 95 | 1016.5 | |
| 20260508064627 | 38 | 0.0 | 0.0 | 0.00 | 0.00 | 0.00 | 95 | 1016.6 | |
| 20260508064107 | 38 | 0.0 | 1.0 | 0.00 | 0.00 | 0.00 | 95 | 1016.5 | |
| 20260508063627 | 38 | 0.0 | 0.0 | 0.00 | 0.00 | 0.00 | 95 | 1016.5 | |
| 20260508063107 | 38 | 0.0 | 0.0 | 0.00 | 0.00 | 0.00 | 95 | 1016.4 | |
| 20260508062627 | 39 | 0.0 | 0.0 | 0.00 | 0.00 | 0.00 | 95 | 1016.4 | |
| 20260508062107 | 39 | 0.0 | 0.0 | 0.00 | 0.00 | 0.00 | 95 | 1016.5 | |
| 20260508061607 | 38 | 0.0 | 0.0 | 0.00 | 0.00 | 0.00 | 95 | 1016.6 | |
| 20260508061107 | 39 | 0.0 | 0.0 | 0.00 | 0.00 | 0.00 | 95 | 1016.6 | |
| 20260508060607 | 39 | 0.0 | 0.0 | 0.00 | 0.00 | 0.00 | 95 | 1016.7 | |
| 20260508060107 | 39 | 0.0 | 0.0 | 0.00 | 0.00 | 0.00 | 95 | 1016.7 | |
| 20260508055607 | 39 | 0.0 | 0.0 | 0.00 | 0.00 | 0.00 | 95 | 1016.6 | |
| 20260508055107 | 39 | 0.0 | 0.0 | 0.00 | 0.00 | 0.00 | 95 | 1016.7 | |
| 20260508054607 | 39 | 0.0 | 0.0 | 0.00 | 0.00 | 0.00 | 95 | 1016.8 | |
| 20260508054107 | 40 | 0.0 | 0.0 | 0.00 | 0.00 | 0.00 | 95 | 1016.8 | |
| 20260508053607 | 40 | 0.0 | 0.0 | 0.00 | 0.00 | 0.00 | 95 | 1016.8 | |
| 20260508053107 | 40 | 0.0 | 0.0 | 0.00 | 0.00 | 0.00 | 95 | 1016.8 | |
| 20260508052627 | 40 | 0.0 | 0.0 | 0.00 | 0.00 | 0.00 | 95 | 1016.8 | |
| 20260508052107 | 40 | 0.0 | 0.0 | 0.00 | 0.00 | 0.00 | 95 | 1017.0 | |
| 20260508051607 | 40 | 0.0 | 0.0 | 0.00 | 0.00 | 0.00 | 95 | 1016.9 | |
| 20260508051107 | 40 | 0.0 | 0.0 | 0.00 | 0.00 | 0.00 | 95 | 1017.0 | |
| 20260508050607 | 40 | 0.0 | 0.0 | 0.00 | 0.00 | 0.00 | 95 | 1016.9 | |
| 20260508050107 | 40 | 0.0 | 0.0 | 0.00 | 0.00 | 0.00 | 95 | 1016.9 | |
| 20260508045627 | 40 | 0.0 | 0.0 | 0.00 | 0.00 | 0.00 | 95 | 1016.8 | |
| 20260508045107 | 40 | 0.0 | 0.0 | 0.00 | 0.00 | 0.00 | 95 | 1016.7 | |
| 20260508044607 | 40 | 0.0 | 0.0 | 0.00 | 0.00 | 0.00 | 95 | 1016.7 | |
| 20260508044107 | 40 | 0.0 | 0.0 | 0.00 | 0.00 | 0.00 | 95 | 1016.8 | |
| 20260508043607 | 40 | 0.0 | 0.0 | 0.00 | 0.00 | 0.00 | 94 | 1016.7 | |
| 20260508043107 | 41 | 0.0 | 0.0 | 0.00 | 0.00 | 0.00 | 94 | 1016.7 | |
| 20260508042607 | 41 | 0.0 | 0.0 | 0.00 | 0.00 | 0.00 | 94 | 1016.7 | |
| 20260508042107 | 41 | 0.0 | 0.0 | 0.00 | 0.00 | 0.00 | 94 | 1016.6 | |
| 20260508041647 | 41 | 0.0 | 0.0 | 0.00 | 0.00 | 0.00 | 94 | 1016.6 | |
| 20260508041107 | 41 | 0.0 | 0.0 | 0.00 | 0.00 | 0.00 | 94 | 1016.6 | |
| 20260508040607 | 41 | 0.0 | 0.0 | 0.00 | 0.00 | 0.00 | 94 | 1016.6 | |
| 20260508040107 | 42 | 0.0 | 0.0 | 0.00 | 0.00 | 0.00 | 93 | 1016.6 | |
| 20260508035607 | 42 | 0.0 | 0.0 | 0.00 | 0.00 | 0.00 | 93 | 1016.6 | |
| 20260508035107 | 41 | 0.0 | 0.0 | 0.00 | 0.00 | 0.00 | 93 | 1016.7 | |
| 20260508034647 | 41 | 0.0 | 0.0 | 0.00 | 0.00 | 0.00 | 93 | 1016.8 | |
| 20260508034107 | 42 | 0.0 | 0.0 | 0.00 | 0.00 | 0.00 | 92 | 1016.8 | |
| 20260508033607 | 42 | 0.0 | 0.0 | 0.00 | 0.00 | 0.00 | 92 | 1016.8 | |
| 20260508033107 | 43 | 0.0 | 0.0 | 0.00 | 0.00 | 0.00 | 92 | 1016.8 | |
| 20260508032607 | 43 | 0.0 | 0.0 | 0.00 | 0.00 | 0.00 | 92 | 1016.7 | |
| 20260508032107 | 43 | 0.0 | 0.0 | 0.00 | 0.00 | 0.00 | 91 | 1016.8 | |
| 20260508031607 | 43 | 0.0 | 0.0 | 0.00 | 0.00 | 0.00 | 91 | 1016.6 | |
| 20260508031127 | 43 | 0.0 | 0.0 | 0.00 | 0.00 | 0.00 | 90 | 1016.6 | |
| 20260508030607 | 43 | 0.0 | 0.0 | 0.00 | 0.00 | 0.00 | 90 | 1016.6 | |
| 20260508030127 | 44 | 0.0 | 0.0 | 0.00 | 0.00 | 0.00 | 89 | 1016.7 | |
| 20260508025607 | 44 | 0.0 | 0.0 | 0.00 | 0.00 | 0.00 | 87 | 1016.6 | |
| 20260508025107 | 44 | 0.0 | 0.0 | 0.00 | 0.00 | 0.00 | 87 | 1016.6 | |
| 20260508024607 | 44 | 0.0 | 0.0 | 0.00 | 0.00 | 0.00 | 87 | 1016.7 | |
| 20260508024107 | 44 | 0.0 | 0.0 | 0.00 | 0.00 | 0.00 | 86 | 1016.7 | |
| 20260508023627 | 45 | 0.0 | 0.0 | 0.00 | 0.00 | 0.00 | 86 | 1016.6 | |
| 20260508023107 | 45 | 0.0 | 0.0 | 0.00 | 0.00 | 0.00 | 84 | 1016.6 | |
| 20260508022607 | 46 | 0.0 | 0.0 | 0.00 | 0.00 | 0.00 | 82 | 1016.5 | |
| 20260508022107 | 46 | 0.0 | 0.0 | 0.00 | 0.00 | 0.00 | 78 | 1016.4 | |
| 20260508021607 | 46 | 0.0 | 0.0 | 0.00 | 0.00 | 0.00 | 77 | 1016.3 | |
| 20260508021107 | 46 | 0.0 | 0.0 | 0.00 | 0.00 | 0.00 | 74 | 1016.4 | |
| 20260508020607 | 46 | 0.0 | 0.0 | 0.00 | 0.00 | 0.00 | 72 | 1016.2 | |
| 20260508020106 | 47 | 0.0 | 0.0 | 0.00 | 0.00 | 0.00 | 70 | 1016.0 | |
| 20260508015606 | 47 | 0.0 | 0.0 | 0.00 | 0.00 | 0.00 | 71 | 1016.0 | |
| 20260508015106 | 48 | 0.0 | 0.0 | 0.00 | 0.00 | 0.00 | 72 | 1015.9 | |
| 20260508014606 | 48 | 0.0 | 0.0 | 0.00 | 0.00 | 0.00 | 70 | 1015.8 | |
| 20260508014106 | 49 | 0.0 | 0.0 | 0.00 | 0.00 | 0.00 | 60 | 1015.8 | |
| 20260508013626 | 49 | 0.0 | 0.0 | 0.00 | 0.00 | 0.00 | 54 | 1015.8 | |
| 20260508013106 | 49 | 0.0 | 0.0 | 0.00 | 0.00 | 0.00 | 52 | 1015.8 | |
| 20260508012606 | 50 | 0.0 | 0.0 | 0.00 | 0.00 | 0.00 | 51 | 1015.6 | |
| 20260508012106 | 50 | 0.0 | 0.0 | 0.00 | 0.00 | 0.00 | 48 | 1015.6 | |
| 20260508011606 | 51 | 0.0 | 0.0 | 0.00 | 0.00 | 0.00 | 48 | 1015.5 | |
| 20260508011106 | 51 | 0.0 | 0.0 | 0.00 | 0.00 | 0.00 | 47 | 1015.4 | |
| 20260508010606 | 52 | 0.0 | 0.0 | 0.00 | 0.00 | 0.00 | 46 | 1015.3 | |
| 20260508010107 | 52 | 0.0 | 0.0 | 0.00 | 0.00 | 0.00 | 45 | 1015.3 | |
| 20260508005627 | 52 | 0.0 | 0.0 | 0.00 | 0.00 | 0.00 | 45 | 1015.3 | |
| 20260508005107 | 53 | 0.0 | 0.0 | 0.00 | 0.00 | 0.00 | 44 | 1015.2 | |
| 20260508004607 | 53 | 0.0 | 0.0 | 0.00 | 0.00 | 0.00 | 43 | 1015.3 | |
| 20260508004107 | 54 | 0.0 | 0.0 | 0.00 | 0.00 | 0.00 | 42 | 1015.2 | |
| 20260508003607 | 55 | 0.0 | 0.0 | 0.00 | 0.00 | 0.00 | 41 | 1015.1 | |
| 20260508003107 | 55 | 0.0 | 0.0 | 0.00 | 0.00 | 0.00 | 41 | 1015.0 | |
| 20260508002607 | 55 | 0.0 | 0.0 | 0.00 | 0.00 | 0.00 | 39 | 1015.0 | |
| 20260508002107 | 56 | 0.0 | 0.0 | 0.00 | 0.00 | 0.00 | 39 | 1014.9 | |
| 20260508001627 | 56 | 0.0 | 0.0 | 0.00 | 0.00 | 0.00 | 38 | 1014.9 | |
| 20260508001107 | 57 | 0.0 | 0.0 | 0.00 | 0.00 | 0.00 | 38 | 1014.9 | |
| 20260508000607 | 57 | 0.0 | 2.0 | 0.00 | 0.00 | 0.00 | 36 | 1014.9 | |
| 20260508000107 | 58 | 50 | 0.0 | 2.0 | 0.00 | 0.00 | 0.00 | 35 | 1015.0 |
| 20260507235607 | 59 | 70 | 1.0 | 2.0 | 0.00 | 0.00 | 0.00 | 35 | 1014.9 |
| 20260507235107 | 59 | 274 | 0.0 | 2.0 | 0.00 | 0.00 | 0.00 | 33 | 1014.9 |
| 20260507234607 | 60 | 348 | 0.0 | 2.0 | 0.00 | 0.00 | 0.00 | 33 | 1014.8 |
| 20260507234107 | 60 | 180 | 0.0 | 2.0 | 0.00 | 0.00 | 0.00 | 32 | 1014.7 |
| 20260507233607 | 60 | 213 | 0.0 | 3.0 | 0.00 | 0.00 | 0.00 | 31 | 1014.8 |
| 20260507233127 | 60 | 287 | 1.0 | 2.0 | 0.00 | 0.00 | 0.00 | 31 | 1014.8 |
| 20260507232612 | 60 | 279 | 1.0 | 3.0 | 0.00 | 0.00 | 0.00 | 30 | 1014.8 |
| 20260507232107 | 60 | 292 | 1.0 | 3.0 | 0.00 | 0.00 | 0.00 | 30 | 1014.9 |
| 20260507231607 | 60 | 264 | 0.0 | 4.0 | 0.00 | 0.00 | 0.00 | 30 | 1014.8 |
| 20260507231107 | 60 | 265 | 1.0 | 4.0 | 0.00 | 0.00 | 0.00 | 31 | 1014.8 |
| 20260507230627 | 60 | 282 | 2.0 | 4.0 | 0.00 | 0.00 | 0.00 | 32 | 1014.6 |
| 20260507230107 | 60 | 9 | 1.0 | 3.0 | 0.00 | 0.00 | 0.00 | 30 | 1014.7 |
| 20260507225607 | 61 | 286 | 1.0 | 4.0 | 0.00 | 0.00 | 0.00 | 31 | 1014.7 |
| 20260507225107 | 61 | 358 | 1.0 | 3.0 | 0.00 | 0.00 | 0.00 | 30 | 1014.6 |
| 20260507224607 | 60 | 11 | 0.0 | 3.0 | 0.00 | 0.00 | 0.00 | 30 | 1014.5 |
| 20260507224107 | 61 | 296 | 2.0 | 4.0 | 0.00 | 0.00 | 0.00 | 30 | 1014.7 |
| 20260507223607 | 61 | 256 | 1.0 | 5.0 | 0.00 | 0.00 | 0.00 | 30 | 1014.7 |
| 20260507223107 | 61 | 239 | 1.0 | 3.0 | 0.00 | 0.00 | 0.00 | 31 | 1014.8 |
| 20260507222607 | 61 | 277 | 2.0 | 4.0 | 0.00 | 0.00 | 0.00 | 31 | 1014.8 |
| 20260507222107 | 60 | 341 | 2.0 | 4.0 | 0.00 | 0.00 | 0.00 | 29 | 1014.8 |
| 20260507221607 | 61 | 12 | 2.0 | 6.0 | 0.00 | 0.00 | 0.00 | 29 | 1014.9 |
| 20260507221107 | 62 | 228 | 1.0 | 4.0 | 0.00 | 0.00 | 0.00 | 31 | 1014.8 |
| 20260507220607 | 61 | 233 | 3.0 | 5.0 | 0.00 | 0.00 | 0.00 | 29 | 1014.8 |
| 20260507220107 | 61 | 333 | 3.0 | 5.0 | 0.00 | 0.00 | 0.00 | 29 | 1014.7 |
| 20260507215607 | 61 | 272 | 2.0 | 5.0 | 0.00 | 0.00 | 0.00 | 29 | 1014.8 |
| 20260507215107 | 61 | 328 | 2.0 | 5.0 | 0.00 | 0.00 | 0.00 | 29 | 1014.7 |
| 20260507214607 | 61 | 59 | 1.0 | 4.0 | 0.00 | 0.00 | 0.00 | 29 | 1014.6 |
| 20260507214107 | 61 | 341 | 1.0 | 4.0 | 0.00 | 0.00 | 0.00 | 29 | 1014.7 |
| 20260507213607 | 61 | 218 | 1.0 | 6.0 | 0.00 | 0.00 | 0.00 | 29 | 1014.6 |
| 20260507213107 | 61 | 272 | 1.0 | 6.0 | 0.00 | 0.00 | 0.00 | 29 | 1014.5 |
| 20260507212707 | 61 | 269 | 2.0 | 5.0 | 0.00 | 0.00 | 0.00 | 29 | 1014.5 |
| 20260507212108 | 61 | 285 | 2.0 | 6.0 | 0.00 | 0.00 | 0.00 | 31 | 1014.4 |
| 20260507211607 | 61 | 94 | 1.0 | 5.0 | 0.00 | 0.00 | 0.00 | 32 | 1014.5 |
| 20260507211107 | 61 | 306 | 1.0 | 3.0 | 0.00 | 0.00 | 0.00 | 34 | 1014.5 |
| 20260507210525 | 61 | 271 | 2.0 | 6.0 | 0.00 | 0.00 | 0.00 | 35 | 1014.5 |
| 20260507210127 | 61 | 270 | 3.0 | 9.0 | 0.00 | 0.00 | 0.00 | 36 | 1014.4 |
| 20260507205607 | 62 | 321 | 2.0 | 4.0 | 0.00 | 0.00 | 0.00 | 36 | 1014.3 |
| 20260507205127 | 61 | 101 | 1.0 | 4.0 | 0.00 | 0.00 | 0.00 | 37 | 1014.3 |
| 20260507204607 | 61 | 326 | 2.0 | 4.0 | 0.00 | 0.00 | 0.00 | 37 | 1014.4 |
| 20260507204127 | 61 | 284 | 2.0 | 3.0 | 0.00 | 0.00 | 0.00 | 38 | 1014.4 |